Wind_Speed
44 45 46 47 49 49 48 46 45 44 44 45 47 47 46 46 46 45 43 42 41 41 42 43 43 44 44 44 44 43 42 42 42 42 42 42 43 43 44 45 45 46 47 47 48 50 50 50 50 50 49 49 49 49 50 50 51 52 54 56 57 58 59 59 59 59 59 59 59 58 57 57 57 58
47 48 49 49 48 47 45 45 45 45 46 47 47 46 46 46 47 46 46 46 46 45 44 44 44 45 45 45 45 45 43 43 43 43 42 43 43 43 44 45 46 47 48 49 50 51 52 53 54 54 55 55 55 55 54 53 53 52 52 53 54 56 57 59 60 60 61 62 62 62 60 58 59 60
49 49 49 48 47 46 46 46 46 47 48 48 48 47 47 48 48 49 49 49 49 48 47 46 45 45 46 46 46 46 45 44 44 44 44 44 44 44 45 46 47 48 49 50 51 52 53 54 55 56 57 57 58 57 57 56 56 55 54 53 54 54 55 56 57 57 58 59 60 60 60 58 59 61
50 49 49 48 48 48 48 49 49 50 50 49 49 48 50 51 51 51 51 51 50 49 48 47 46 46 47 46 46 46 46 46 45 44 44 44 44 46 48 49 49 50 52 52 53 54 54 54 55 56 57 57 57 57 57 57 57 57 57 56 55 55 55 55 56 57 57 57 56 57 59 58 58 60
50 50 50 50 50 50 51 51 51 51 51 51 51 51 53 54 53 52 53 52 50 49 48 47 46 47 47 47 46 46 46 46 46 46 44 44 45 47 48 49 51 52 54 54 55 55 55 54 54 55 56 56 57 57 58 58 58 58 59 59 59 58 57 57 56 56 57 57 56 56 57 59 59 58
51 52 52 52 52 52 52 52 52 52 52 53 53 55 55 54 52 52 52 52 50 49 48 47 47 47 47 48 48 48 47 46 47 46 45 44 45 46 48 50 51 52 53 54 54 54 54 53 53 53 54 54 55 56 56 57 58 59 59 59 60 60 60 59 58 57 57 57 57 56 56 58 60 60
54 54 54 54 54 54 54 54 54 54 54 54 55 56 55 54 52 51 50 49 48 48 48 48 48 48 48 49 50 50 49 49 48 46 45 46 46 46 47 49 50 52 52 53 53 53 52 51 51 52 52 53 53 53 54 55 56 57 58 58 59 59 60 61 61 60 59 58 58 58 58 58 59 61
56 56 57 57 57 57 57 56 56 55 55 55 54 54 54 53 52 50 48 47 47 48 48 48 49 49 50 50 51 51 51 51 50 49 48 49 49 49 49 50 51 52 52 52 52 51 50 50 49 50 51 51 52 52 53 53 54 54 55 56 57 58 59 60 61 61 61 60 60 60 60 60 59 61
59 59 60 60 60 59 58 57 56 56 56 56 54 53 53 54 53 50 47 46 47 49 49 49 49 50 51 51 52 52 52 52 53 53 53 53 53 53 53 53 53 53 52 52 50 49 48 48 48 48 49 49 50 51 51 52 52 53 53 54 55 57 58 60 61 62 62 62 62 61 61 62 61 61
60 61 61 61 60 59 58 57 56 57 57 57 56 54 53 53 52 51 50 49 49 50 51 51 50 51 52 53 53 53 53 53 54 55 56 56 56 56 55 55 54 53 53 52 50 49 49 49 48 48 47 47 48 49 50 50 51 52 53 53 54 56 57 59 60 62 63 63 64 63 63 64 64 64
60 60 60 60 59 58 57 57 56 56 57 58 58 56 54 53 52 52 52 52 52 52 52 52 52 52 53 54 55 55 55 55 56 56 56 57 58 58 57 57 56 55 54 53 51 51 51 51 51 50 49 48 49 49 49 50 50 51 52 53 54 55 57 58 60 61 63 64 65 65 65 65 66 67
60 59 58 58 58 58 57 57 57 56 57 58 58 57 56 55 54 53 53 53 54 54 54 54 54 54 54 54 55 56 57 57 58 58 57 58 59 59 58 57 56 55 54 52 52 52 52 52 51 51 51 51 51 51 51 51 51 52 52 53 54 55 56 58 60 62 63 65 65 66 66 67 68 68
59 57 56 56 57 57 57 57 57 57 57 57 58 58 58 58 57 56 55 54 54 55 56 57 57 57 56 56 56 56 57 59 60 60 59 59 59 58 57 56 55 54 52 51 51 52 51 51 51 51 51 52 52 52 53 53 54 55 55 56 56 57 58 59 61 63 64 65 66 67 68 69 69 70
59 58 58 57 57 57 57 57 58 58 59 59 59 60 60 60 60 59 58 56 55 55 57 57 58 57 57 57 58 58 58 59 60 60 60 59 58 56 55 53 53 53 52 51 52 53 52 51 52 53 54 54 54 54 54 55 56 58 59 60 60 61 61 62 63 64 65 66 66 68 69 69 70 71
60 59 59 58 58 58 59 60 61 62 62 62 62 61 61 60 60 59 59 58 57 56 56 56 57 57 57 58 59 59 58 58 59 59 58 57 55 53 52 51 51 52 52 53 54 55 54 54 54 55 57 58 58 57 57 57 58 60 62 63 65 65 66 66 67 67 67 67 67 68 69 70 70 71
61 59 60 60 62 63 64 65 65 64 64 63 62 62 61 61 61 61 60 59 58 57 55 56 57 58 58 58 58 58 59 59 58 57 55 54 51 50 49 49 50 51 52 54 55 55 56 56 56 57 59 60 61 61 61 61 61 62 64 66 67 69 70 70 71 71 71 70 70 70 70 70 70 71
62 62 64 65 66 67 67 66 65 65 65 66 66 65 64 63 63 62 60 59 59 58 57 57 57 58 59 60 60 59 58 57 57 55 54 51 49 49 48 48 48 49 50 52 53 54 55 57 58 59 60 61 62 62 63 64 64 65 66 67 68 70 72 73 74 75 75 74 74 73 73 72 72 72
65 66 67 67 67 68 67 67 66 67 68 68 68 67 66 64 64 63 62 61 61 62 61 61 60 61 62 62 61 60 58 56 55 54 53 51 50 49 49 48 48 48 49 49 51 52 54 56 57 59 60 62 63 63 64 65 66 66 67 68 69 70 72 74 76 76 77 77 77 76 76 76 76 75
68 68 67 67 67 67 67 66 66 65 65 65 66 67 68 68 68 68 68 67 66 66 66 66 66 66 66 64 62 60 58 56 55 53 53 52 51 50 50 49 49 49 49 49 50 52 53 54 56 58 60 62 64 65 66 66 66 66 66 67 69 71 73 74 76 77 77 77 78 77 77 77 78 78
70 69 69 68 68 67 67 66 66 65 63 64 67 70 70 70 71 73 73 72 71 70 70 70 70 70 69 67 65 63 60 58 55 53 52 52 51 51 51 52 52 51 50 50 52 52 53 54 56 59 61 64 65 67 67 67 65 64 64 66 68 70 71 73 75 77 78 78 79 79 79 79 79 79
72 72 71 68 67 67 68 69 70 69 68 69 71 72 72 73 74 76 77 77 76 76 75 74 73 72 71 69 67 65 63 60 57 55 54 53 52 52 53 53 54 53 51 51 52 53 54 56 58 60 63 65 66 67 67 65 63 62 63 64 66 68 69 70 72 74 77 78 80 80 80 80 80 80
75 75 74 72 69 71 73 73 73 74 74 74 75 76 78 80 80 80 81 81 81 80 79 76 74 73 71 69 67 65 62 60 58 56 55 55 55 55 55 55 55 54 53 53 53 54 55 57 59 60 62 64 66 66 65 64 63 63 63 64 66 67 69 70 72 74 77 79 81 82 81 81 80 80
77 76 76 76 75 76 78 78 77 77 77 77 78 80 81 83 84 84 84 84 84 82 79 75 72 69 68 66 64 62 60 59 58 57 56 56 56 56 56 56 56 56 55 56 56 56 57 59 60 61 62 63 65 66 66 66 66 66 67 68 69 70 72 74 76 77 79 81 83 84 84 83 82 81
75 75 75 75 75 75 76 75 76 76 76 76 77 78 79 81 82 82 82 81 81 79 75 71 67 65 64 63 62 61 60 59 59 58 58 58 58 57 57 57 57 57 57 58 58 59 60 61 62 63 64 64 65 67 69 70 71 70 71 73 74 75 77 78 79 80 81 82 84 84 85 85 85 84
72 71 72 72 72 71 71 70 70 71 71 70 70 72 74 75 75 75 76 76 76 75 72 68 66 65 63 62 61 60 61 61 61 60 60 60 60 60 59 59 60 59 59 59 61 62 62 63 63 65 66 67 67 68 69 72 74 75 75 76 77 79 80 80 81 81 81 81 81 81 82 83 83 84
70 70 71 70 70 69 69 68 68 68 68 68 67 68 71 72 71 71 72 72 73 73 71 69 67 66 65 64 63 62 63 64 63 63 63 63 62 62 61 61 62 61 61 62 63 64 64 64 65 66 68 69 69 69 70 72 74 76 76 77 78 80 81 81 81 80 79 78 77 77 77 78 78 79
71 72 72 72 71 70 70 70 69 68 69 69 69 70 71 70 70 70 72 73 73 73 73 72 71 69 68 66 66 65 65 65 65 65 65 65 64 64 63 64 64 64 64 64 65 65 65 65 66 67 68 69 69 69 70 72 73 74 76 77 78 79 79 79 79 78 76 75 74 73 73 73 73 74
75 75 75 75 74 73 72 72 70 70 70 71 72 73 74 73 72 71 72 73 74 74 74 75 74 72 70 70 69 68 67 67 67 67 66 66 66 66 66 66 66 66 66 66 66 66 66 66 67 68 68 68 67 67 68 70 72 73 75 77 78 77 76 76 75 75 74 73 71 70 69 68 68 69
79 79 79 79 78 77 76 74 73 73 73 73 74 75 76 76 75 75 75 75 75 76 77 77 75 74 73 73 73 72 71 70 70 69 69 68 68 68 68 68 68 67 67 67 66 66 66 66 66 67 66 66 65 64 65 68 70 72 75 77 78 75 74 73 72 72 71 70 69 67 66 65 64 64
81 82 82 81 80 79 78 77 77 76 77 77 77 78 79 79 79 80 79 79 79 80 80 79 77 76 75 75 75 76 75 74 72 71 71 70 70 70 69 68 68 67 66 65 65 65 65 65 64 64 63 63 63 62 63 66 69 71 74 76 76 74 72 71 69 68 67 66 65 63 62 61 61 61
84 83 83 83 82 81 81 80 80 80 79 80 81 81 82 82 82 83 83 83 83 84 83 82 80 79 77 76 76 77 76 75 74 73 71 70 70 69 69 68 67 65 64 62 61 61 62 62 61 60 60 61 60 60 62 64 67 71 73 74 73 70 68 66 64 62 62 61 60 59 58 57 57 57
86 86 85 84 84 83 83 83 82 81 81 82 83 84 85 85 85 85 86 86 87 87 86 85 84 82 80 79 78 77 77 76 75 74 73 71 70 70 69 68 66 64 62 60 58 57 57 58 59 59 58 58 57 58 61 64 66 68 70 69 66 63 62 61 59 58 57 56 56 55 54 53 54 53
88 88 87 87 86 85 84 83 82 82 82 84 85 86 87 87 87 88 89 89 89 89 88 87 86 85 83 82 80 80 79 79 78 77 76 74 73 71 70 69 66 64 62 59 57 55 55 56 57 58 57 55 54 55 59 62 63 65 64 61 58 56 55 55 55 55 53 52 51 51 50 49 49 49
89 90 90 89 87 86 84 83 81 81 82 84 86 87 87 88 89 90 91 91 90 90 89 89 88 86 85 84 83 82 81 80 80 79 78 77 75 74 72 70 67 64 61 59 57 56 56 56 57 56 55 54 53 52 53 57 60 60 58 54 52 52 51 50 50 50 50 49 49 49 48 46 46 45
88 91 92 91 88 86 84 82 81 80 81 83 85 86 87 88 89 91 92 91 90 90 89 88 88 87 86 85 84 83 82 81 81 80 79 78 77 75 73 71 67 63 59 57 57 57 57 57 56 55 55 54 51 48 47 50 55 57 54 49 48 48 48 47 46 46 45 45 46 47 46 44 43 42
87 91 93 93 90 86 84 83 82 80 81 82 83 84 85 87 89 92 92 90 89 88 88 87 88 88 87 85 84 83 82 82 81 80 79 78 77 75 73 70 66 62 58 56 56 57 57 55 54 55 56 55 51 44 40 43 49 54 53 48 45 45 45 44 44 43 42 42 43 44 43 41 40 39
84 88 91 92 91 88 85 85 84 82 82 82 81 82 84 86 89 90 90 88 86 86 86 86 86 86 85 83 83 82 82 82 81 80 79 78 77 75 72 69 65 61 58 57 56 56 55 53 53 53 55 55 52 43 36 37 44 50 51 48 43 42 42 43 42 40 38 39 40 42 41 40 38 38
81 83 85 87 88 87 86 86 85 83 82 81 81 81 83 86 87 88 87 85 84 83 83 83 83 81 80 80 80 81 80 80 79 78 77 75 75 73 70 67 63 59 57 56 55 54 53 52 52 52 52 53 51 44 36 34 39 45 48 46 42 40 41 42 40 38 36 36 38 40 40 38 37 37
76 77 78 80 82 82 83 83 82 81 80 81 81 81 82 84 85 85 83 82 81 80 81 81 78 76 76 78 79 78 78 76 75 75 74 73 72 70 67 64 61 57 55 54 54 53 52 51 51 51 50 50 49 44 39 36 36 39 42 42 40 39 40 40 39 36 35 34 36 38 39 38 36 36
71 72 73 75 76 77 78 78 78 78 78 79 79 78 79 81 81 79 77 77 76 76 76 76 73 72 74 76 76 76 75 75 74 73 72 71 70 68 65 62 57 54 53 54 54 53 52 51 50 49 48 47 46 44 41 38 36 36 36 36 37 38 39 38 37 35 34 33 34 35 36 36 35 33
67 68 69 70 71 73 74 74 75 75 76 76 77 77 77 77 75 72 71 72 71 70 68 67 66 66 68 70 72 72 73 73 73 72 72 71 69 66 63 59 55 53 54 55 55 53 51 49 48 47 45 44 43 42 41 39 37 35 33 32 33 35 35 35 34 33 32 32 32 32 32 32 32 31
64 65 66 67 68 70 71 71 71 72 73 74 76 76 74 72 68 66 65 66 66 64 61 60 59 60 61 62 64 65 66 67 68 69 69 68 67 65 61 56 54 54 55 55 54 52 50 48 45 44 43 42 42 40 39 38 37 35 33 31 31 33 32 32 31 31 30 31 30 29 29 28 28 27
61 62 63 64 65 67 67 68 69 70 71 72 74 74 72 68 62 58 58 59 58 57 56 55 55 54 54 55 56 57 59 60 62 63 64 64 63 60 57 54 54 54 54 53 51 49 47 45 42 41 40 41 40 39 38 37 35 34 32 30 30 31 30 30 29 28 28 28 28 27 25 25 25 25
59 60 60 61 62 63 65 66 67 68 69 70 71 71 68 63 58 54 53 52 51 50 51 51 50 49 50 50 51 53 54 55 57 58 59 59 57 54 52 51 52 51 50 49 47 45 43 41 39 38 38 38 37 36 36 35 34 32 30 30 29 29 28 28 27 26 25 25 25 23 22 22 22 22
55 56 56 58 59 61 63 64 65 67 68 68 68 67 65 60 56 54 52 49 46 46 46 46 47 48 48 49 49 50 50 51 52 53 54 53 50 48 47 47 47 46 45 44 42 40 39 38 38 37 37 36 35 34 34 33 32 31 29 28 28 27 26 26 25 23 23 23 22 21 20 20 20 19
Wind_Direction
268 268 268 269 272 275 277 278 279 279 279 279 280 282 285 288 292 293 292 292 292 289 286 285 285 285 286 288 290 289 286 285 285 285 285 284 284 283 282 280 278 275 273 270 266 264 263 261 260 260 261 262 264 266 267 267 268 268 268 268 268 267 266 265 265 265 265 265 264 264 263 260 256 253
270 270 270 272 274 275 276 278 279 279 279 280 283 285 287 289 291 291 291 292 292 291 287 285 284 285 285 286 289 289 286 285 285 286 287 287 287 287 285 283 281 279 276 273 271 268 266 265 263 262 262 263 265 266 267 267 266 266 267 268 269 268 268 267 266 266 266 266 266 265 264 260 255 253
272 272 272 274 275 275 277 279 280 280 280 282 285 288 290 291 290 290 290 291 291 290 287 284 283 284 283 284 287 288 285 284 285 286 288 289 289 290 289 287 284 282 279 277 274 272 270 269 267 266 266 266 266 267 267 266 265 265 265 266 267 268 269 268 268 267 267 267 266 264 263 259 255 253
274 274 275 276 276 277 279 280 281 281 280 281 283 287 290 291 290 290 290 290 290 288 285 283 283 283 282 282 284 286 284 282 283 284 287 289 290 290 289 288 287 285 283 280 278 276 274 273 271 270 269 268 268 267 267 267 266 265 265 266 266 267 268 268 268 268 268 268 267 265 262 259 257 254
277 277 277 278 278 279 280 281 281 281 280 280 281 285 288 289 288 288 289 290 288 285 283 282 281 281 281 281 282 283 283 282 281 282 285 287 287 286 285 285 285 284 283 283 281 280 278 276 274 273 271 270 269 268 267 266 266 265 265 266 266 266 267 267 267 267 268 267 267 266 263 260 258 258
278 279 279 279 280 281 281 282 282 282 281 281 282 284 286 286 285 286 287 288 286 283 282 281 280 280 280 281 282 282 282 281 280 281 283 284 284 284 284 284 284 283 283 282 282 282 281 279 277 275 273 271 270 269 268 267 266 265 265 265 265 266 266 266 266 267 267 267 266 266 264 261 258 258
280 280 281 281 282 282 283 283 283 283 282 282 283 284 284 283 283 284 284 284 283 281 280 280 280 280 280 280 282 283 284 284 283 283 284 284 284 285 286 286 286 285 284 283 282 282 282 280 278 277 275 274 273 271 270 269 267 266 266 265 265 265 265 265 265 265 266 266 266 265 264 262 259 257
282 282 283 283 284 284 284 284 284 283 283 283 283 284 284 284 284 283 282 281 280 280 280 280 280 280 280 280 281 283 285 286 287 288 288 287 288 289 289 288 288 287 286 285 284 282 281 280 279 277 276 275 274 273 272 271 270 268 267 266 265 265 265 264 264 264 264 265 265 264 263 263 261 258
283 283 284 284 284 285 284 284 284 284 284 285 285 284 285 286 286 285 282 280 280 280 280 280 280 280 281 281 282 284 286 288 289 290 289 289 289 290 290 289 288 286 285 285 283 281 280 280 278 277 276 274 273 273 272 271 271 270 269 267 266 265 265 265 264 264 264 264 264 263 262 262 261 260
283 284 284 284 284 284 284 284 284 284 285 286 287 287 286 287 287 286 284 282 280 280 280 280 280 280 281 282 284 285 287 288 288 287 287 288 288 289 289 287 286 285 283 282 280 278 279 278 276 274 273 272 272 272 271 271 270 270 269 268 268 267 266 266 265 265 264 264 263 263 262 261 260 259
284 284 284 284 283 283 283 283 283 284 285 286 287 287 286 285 284 284 283 283 282 281 280 280 280 281 282 284 285 286 287 287 286 285 285 286 287 288 288 287 286 285 284 281 279 278 279 278 275 273 271 270 269 269 269 269 270 270 269 269 268 268 267 266 266 265 265 264 263 262 262 261 260 259
285 285 284 283 282 281 281 281 281 281 282 284 284 285 285 284 284 283 283 283 283 282 282 282 283 284 284 285 285 285 286 286 285 285 284 284 285 286 286 285 284 283 282 280 279 280 282 281 279 277 275 274 272 271 270 269 268 268 268 268 268 267 267 266 266 265 265 264 264 264 263 261 260 259
284 284 283 282 281 280 280 280 281 281 281 282 284 284 284 284 283 283 282 282 282 282 283 284 285 285 286 286 286 286 286 286 286 285 284 285 285 285 284 282 281 279 278 277 276 278 281 282 281 280 279 278 277 276 275 274 272 270 269 267 267 266 266 265 265 265 264 264 264 264 263 263 262 261
283 283 282 281 280 280 280 281 282 283 283 283 283 283 283 283 283 282 282 281 281 281 282 284 284 285 286 286 287 288 288 288 287 286 285 285 285 283 282 280 278 276 274 273 273 274 277 278 279 279 278 277 277 276 276 276 276 275 273 271 269 268 266 265 265 264 264 264 264 264 264 264 263 263
284 283 282 281 280 280 281 282 284 284 284 283 282 282 281 281 281 281 281 282 282 282 283 284 284 284 285 286 287 288 289 288 287 286 285 284 283 281 280 278 277 274 272 270 270 272 274 274 275 276 276 276 276 275 275 275 275 275 275 274 273 271 270 269 267 267 266 265 265 264 264 264 264 264
283 282 282 281 282 283 284 285 286 285 284 283 282 281 281 280 279 279 280 280 281 282 282 283 283 284 285 287 288 289 289 288 287 286 284 283 282 282 281 279 277 275 272 269 269 271 273 273 273 274 274 274 274 274 274 273 272 272 273 273 274 274 273 272 271 270 269 268 267 266 265 264 263 263
282 282 282 283 283 285 285 286 285 285 284 283 283 282 280 279 279 279 279 279 280 281 283 283 284 285 287 289 290 290 290 289 287 285 284 284 284 284 282 281 279 277 274 271 271 271 272 272 272 273 272 272 273 273 273 272 272 272 272 272 273 274 274 274 273 272 271 270 269 268 267 266 265 264
282 282 283 283 284 284 284 284 284 284 284 285 285 284 283 282 282 282 283 282 283 285 286 287 287 289 290 291 292 291 291 288 286 284 284 285 285 284 283 281 280 278 276 274 273 271 271 271 273 273 273 273 273 273 273 273 272 273 273 274 273 273 274 274 274 274 273 272 271 270 269 269 268 267
280 280 281 281 281 281 282 281 281 282 283 284 284 284 285 286 286 286 287 287 287 288 289 290 290 291 292 293 293 292 290 288 286 285 285 286 286 284 283 282 281 280 279 277 276 274 274 276 277 278 278 278 277 276 275 274 274 275 276 276 275 274 274 275 275 275 275 275 273 272 271 270 269 268
278 278 279 279 279 278 277 276 276 277 278 279 280 281 283 284 284 285 286 287 288 288 289 289 290 291 293 293 293 292 291 289 287 286 287 287 286 285 283 283 282 281 281 280 279 278 279 280 281 281 281 280 280 278 277 276 276 277 278 278 277 276 276 275 275 276 275 275 275 274 272 271 270 269
278 278 278 278 277 276 274 273 272 273 273 273 276 278 279 279 279 281 283 284 285 286 287 288 289 290 291 291 291 290 289 288 288 288 288 288 287 286 284 284 283 282 282 282 281 281 282 282 282 282 282 281 281 280 280 279 278 278 278 277 277 277 276 275 275 274 274 274 273 273 272 272 271 270
278 278 278 277 275 274 274 273 273 273 272 272 272 273 275 276 277 278 279 280 281 283 284 286 287 287 287 287 286 286 285 285 286 287 287 287 286 285 285 285 285 285 285 285 284 284 284 283 283 283 283 283 283 283 283 283 281 280 279 278 277 276 275 275 274 273 272 272 272 273 273 273 273 273
277 277 276 275 274 272 273 273 273 273 272 272 271 271 273 274 275 276 277 278 279 281 282 284 284 284 284 283 283 282 282 282 283 284 285 285 284 284 285 286 287 287 287 287 287 286 286 285 285 285 285 285 286 286 286 285 284 283 282 281 279 277 275 273 272 271 271 272 272 273 274 275 276 276
276 275 275 274 274 273 273 273 272 272 272 272 272 272 272 273 274 275 276 277 279 280 281 282 282 282 281 280 280 280 280 281 282 282 283 283 283 284 286 287 287 287 288 288 287 287 286 286 286 286 286 286 286 287 287 287 286 285 284 283 281 279 277 275 273 272 271 272 273 274 275 276 277 277
274 274 274 274 274 274 274 273 272 272 272 272 272 272 273 273 273 274 275 276 277 278 280 281 281 280 280 279 278 279 280 281 281 281 281 282 283 284 285 286 286 287 286 286 286 285 285 286 286 286 286 286 286 286 286 287 286 286 285 284 283 281 280 278 277 276 276 276 276 275 275 275 275 275
272 272 273 272 272 273 272 272 272 272 272 272 271 271 272 273 274 274 275 275 276 277 278 278 278 277 277 278 278 279 279 280 281 281 281 282 282 283 284 285 285 285 284 284 284 284 285 285 285 285 285 286 286 286 286 286 285 285 285 284 283 283 282 282 281 281 281 280 279 278 277 276 275 275
272 272 271 271 271 271 271 271 271 271 271 271 271 271 271 272 272 273 274 275 276 276 277 277 276 276 277 277 277 277 278 279 280 280 281 282 283 284 284 284 283 283 283 283 283 284 284 284 284 285 285 285 286 287 287 286 286 285 285 284 283 283 283 284 285 285 284 283 282 280 279 278 277 276
272 271 271 271 270 270 270 270 270 270 270 271 271 271 271 271 271 271 272 273 274 274 275 275 277 278 278 278 278 278 279 279 280 281 282 282 283 283 283 282 282 282 282 283 283 283 283 284 284 284 285 286 286 287 287 287 286 286 285 285 284 285 285 286 287 286 286 284 283 282 281 279 278 276
270 269 269 269 269 269 269 269 269 269 269 269 269 270 271 271 271 270 270 270 271 272 273 274 276 277 278 278 279 280 280 280 280 281 282 282 282 281 281 281 281 282 282 283 283 283 283 284 284 285 285 286 286 286 286 286 286 286 286 285 286 287 288 288 288 287 286 285 284 283 282 281 279 277
268 267 267 266 266 266 266 266 266 266 266 267 267 268 269 270 270 271 271 270 270 270 271 272 273 274 275 275 276 277 278 278 279 279 279 280 280 280 281 281 282 282 282 282 283 283 284 284 285 285 286 286 286 286 286 286 285 285 285 285 287 288 288 287 286 286 285 284 284 283 283 282 281 279
269 267 266 266 265 264 263 263 262 263 263 264 265 266 267 268 269 269 270 271 271 271 272 273 273 273 273 274 274 276 277 278 278 279 279 280 281 282 283 283 283 283 283 283 283 284 284 285 285 285 285 285 286 286 286 285 285 284 284 284 286 287 287 286 285 284 283 283 283 283 283 283 282 281
271 269 268 267 266 265 263 262 262 262 262 262 263 263 264 265 266 267 268 269 270 271 272 273 274 275 275 276 277 278 279 280 281 282 283 283 284 285 285 286 286 286 285 285 284 284 284 284 284 284 284 284 285 285 285 284 283 283 283 284 285 285 285 284 284 283 283 283 283 283 283 282 282 282
272 271 270 269 267 266 265 265 264 263 263 263 263 263 263 264 264 265 265 266 268 269 271 272 273 275 276 277 278 279 280 281 282 284 285 286 286 286 287 287 287 287 288 288 287 285 285 284 284 284 283 283 283 283 284 285 284 283 283 284 284 284 283 284 284 284 284 284 284 284 283 283 283 283
273 273 272 270 269 268 267 267 266 265 264 264 263 263 264 264 264 264 265 265 267 268 269 270 272 274 275 276 277 278 279 280 282 283 284 285 286 286 287 287 288 289 289 290 289 288 287 286 285 284 283 282 283 284 286 286 285 284 283 284 285 284 284 284 284 285 286 287 287 286 286 285 285 285
272 272 272 271 270 269 269 268 267 265 264 264 263 264 264 265 265 265 265 266 267 267 268 270 271 273 273 274 276 277 278 279 280 281 283 283 284 285 286 287 288 289 289 289 289 289 289 289 288 287 286 285 285 286 287 287 287 285 284 284 285 285 285 285 285 286 287 288 288 288 288 288 289 288
269 270 270 271 271 270 270 269 268 266 265 264 264 264 265 265 265 266 267 267 268 268 269 270 271 271 272 274 275 276 277 278 279 280 281 283 284 285 286 287 288 289 289 288 289 289 289 289 290 291 291 290 288 286 286 288 289 288 287 287 286 286 287 287 287 288 290 290 290 290 290 291 292 292
265 266 267 269 270 271 270 270 269 268 267 266 266 265 265 265 265 266 268 269 269 269 270 270 270 271 272 274 275 276 277 278 278 279 281 282 283 284 286 287 288 288 288 288 288 289 289 289 291 293 294 294 292 287 284 286 288 288 288 288 289 289 289 289 289 290 292 292 292 292 293 294 295 296
264 264 265 266 268 269 269 269 269 269 269 268 267 266 266 265 266 267 268 269 269 270 270 270 271 272 274 274 275 275 276 277 278 279 280 281 282 283 285 286 286 286 286 287 288 289 289 291 292 294 295 295 294 290 286 285 286 286 287 289 291 291 290 289 290 292 293 294 295 295 295 297 298 297
264 264 264 264 265 266 267 267 268 268 269 268 268 267 266 266 266 267 268 269 269 270 270 271 272 273 274 274 274 275 276 277 278 279 280 281 282 283 283 284 283 283 285 287 289 290 291 292 294 295 295 295 294 292 290 287 284 284 287 290 292 292 290 291 293 295 296 296 296 295 295 297 297 296
264 264 263 263 263 264 265 265 266 266 266 267 267 267 266 266 267 268 269 270 270 270 270 271 272 273 272 272 273 275 276 277 278 279 280 281 281 282 282 282 282 284 287 289 291 291 292 293 294 295 295 293 292 292 291 289 285 284 285 288 290 290 290 291 294 296 297 296 294 292 293 294 294 293
264 263 262 262 262 262 262 263 264 264 265 265 265 265 265 265 267 269 270 271 271 272 272 274 275 274 273 272 273 274 275 276 277 278 279 280 281 281 281 281 283 287 289 290 291 291 292 293 294 294 293 291 291 291 290 289 288 287 287 288 288 287 287 290 294 295 295 294 292 291 290 290 291 291
263 262 261 261 260 260 261 261 262 262 263 264 265 266 266 267 267 267 267 268 271 273 276 277 277 276 275 274 274 274 274 275 275 276 277 277 278 278 279 282 285 288 289 289 290 291 292 292 292 291 291 290 289 288 288 288 289 290 291 291 289 288 289 293 295 295 294 292 291 291 291 290 289 289
262 261 260 259 259 260 260 261 261 261 262 263 265 266 268 269 269 269 268 269 272 274 276 276 276 275 275 275 274 273 273 272 272 273 273 274 275 277 280 283 285 286 287 287 288 289 290 290 289 289 288 288 287 286 287 288 289 290 291 291 290 290 293 295 295 293 291 290 290 290 290 290 289 290
259 259 258 258 258 259 259 259 259 259 260 261 263 266 269 271 273 274 273 273 273 273 274 274 275 275 274 273 272 271 270 270 270 271 271 272 275 278 281 283 283 283 284 285 286 287 287 287 287 287 286 285 284 285 286 287 288 289 290 290 290 291 293 293 292 290 288 287 287 288 288 289 290 291
257 257 256 256 255 256 256 257 257 258 259 261 263 266 269 272 274 274 273 273 272 271 271 272 273 273 272 271 270 269 269 269 269 269 270 273 276 278 279 280 280 281 282 283 283 284 284 285 285 285 284 283 283 283 285 286 287 289 289 289 290 292 293 291 289 288 286 286 286 287 288 289 290 290
Height
10632 10632 10632 10632 10631 10630 10628 10626 10625 10624 10624 10623 10623 10623 10622 10620 10617 10616 10614 10613 10613 10613 10612 10611 10609 10608 10607 10605 10604 10603 10602 10601 10600 10600 10599 10598 10598 10597 10597 10596 10596 10596 10595 10595 10595 10595 10595 10595 10595 10594 10594 10594 10594 10595 10595 10594 10594 10594 10594 10593 10593 10593 10594 10594 10595 10595 10596 10596 10596 10597 10598 10599 10600 10601
10626 10626 10626 10626 10625 10625 10623 10622 10620 10618 10616 10616 10616 10617 10617 10615 10613 10611 10609 10607 10607 10606 10606 10606 10605 10603 10602 10600 10598 10597 10596 10596 10595 10594 10593 10593 10592 10592 10591 10590 10589 10589 10588 10588 10588 10588 10588 10588 10588 10588 10588 10588 10588 10588 10588 10588 10588 10587 10587 10587 10586 10586 10586 10586 10587 10588 10588 10589 10589 10589 10590 10591 10592 10593
10620 10620 10620 10620 10620 10619 10618 10617 10615 10613 10611 10610 10609 10609 10609 10609 10607 10605 10604 10602 10601 10600 10599 10599 10599 10598 10596 10595 10593 10591 10591 10590 10589 10588 10587 10587 10586 10586 10584 10583 10583 10582 10581 10581 10580 10580 10581 10581 10581 10580 10580 10581 10581 10581 10581 10581 10581 10580 10580 10580 10579 10579 10579 10579 10579 10580 10580 10581 10581 10581 10582 10583 10584 10585
10613 10613 10614 10614 10614 10614 10613 10612 10610 10608 10607 10605 10604 10603 10602 10601 10600 10598 10597 10597 10596 10594 10592 10592 10592 10591 10590 10590 10589 10587 10585 10584 10584 10583 10582 10582 10581 10579 10578 10577 10576 10575 10574 10573 10573 10572 10573 10573 10572 10572 10572 10573 10573 10573 10573 10573 10573 10573 10573 10572 10572 10572 10572 10572 10572 10572 10573 10573 10574 10574 10574 10575 10576 10577
10606 10606 10607 10607 10607 10607 10607 10605 10604 10603 10602 10601 10600 10599 10597 10595 10594 10592 10590 10590 10589 10587 10586 10586 10586 10585 10583 10583 10583 10582 10580 10579 10578 10577 10578 10577 10575 10573 10572 10571 10570 10568 10567 10566 10565 10564 10564 10564 10564 10564 10564 10564 10564 10565 10565 10565 10565 10565 10565 10565 10564 10564 10564 10565 10565 10565 10565 10566 10566 10567 10567 10567 10568 10569
10599 10599 10600 10600 10600 10600 10599 10598 10598 10597 10596 10594 10594 10593 10592 10590 10589 10588 10586 10584 10582 10580 10580 10580 10580 10579 10578 10577 10575 10575 10575 10574 10573 10572 10572 10571 10569 10567 10566 10564 10563 10561 10560 10559 10557 10556 10556 10556 10556 10555 10555 10555 10555 10556 10556 10556 10556 10556 10556 10556 10556 10556 10556 10556 10557 10557 10558 10558 10558 10559 10559 10559 10560 10561
10592 10592 10592 10592 10592 10592 10591 10590 10590 10589 10588 10588 10587 10586 10585 10584 10584 10583 10582 10580 10577 10575 10574 10574 10573 10572 10572 10571 10569 10568 10568 10567 10566 10567 10566 10564 10562 10561 10560 10558 10556 10554 10553 10551 10550 10549 10548 10548 10548 10547 10547 10547 10547 10547 10547 10547 10547 10548 10548 10548 10548 10548 10548 10548 10548 10549 10550 10550 10551 10551 10551 10551 10552 10553
10585 10584 10583 10584 10584 10584 10583 10582 10582 10581 10580 10580 10580 10579 10577 10576 10576 10577 10577 10575 10572 10570 10569 10569 10567 10565 10565 10565 10563 10562 10561 10559 10558 10559 10559 10557 10555 10554 10553 10551 10549 10547 10546 10545 10543 10542 10541 10540 10540 10540 10539 10539 10538 10538 10538 10538 10539 10539 10540 10540 10540 10540 10539 10540 10540 10540 10541 10542 10542 10542 10543 10543 10544 10544
10577 10576 10575 10575 10575 10575 10574 10574 10573 10572 10571 10571 10573 10573 10571 10568 10567 10568 10569 10569 10566 10564 10563 10563 10562 10560 10558 10557 10557 10556 10554 10553 10551 10551 10550 10549 10548 10547 10546 10544 10542 10541 10539 10538 10537 10536 10534 10533 10533 10532 10532 10531 10530 10530 10531 10531 10531 10531 10531 10531 10532 10531 10531 10531 10531 10531 10532 10533 10533 10534 10534 10534 10535 10535
10570 10569 10567 10567 10566 10566 10566 10565 10565 10563 10561 10561 10563 10564 10564 10562 10560 10559 10560 10560 10560 10558 10557 10557 10557 10555 10552 10550 10550 10548 10548 10547 10546 10544 10542 10541 10540 10540 10539 10537 10535 10534 10533 10532 10531 10530 10529 10527 10527 10527 10526 10525 10524 10523 10523 10523 10523 10523 10523 10523 10523 10523 10523 10522 10522 10522 10522 10523 10523 10525 10525 10525 10525 10526
10562 10561 10560 10558 10557 10557 10557 10556 10556 10555 10553 10551 10552 10553 10555 10555 10555 10554 10552 10552 10551 10551 10550 10550 10550 10549 10547 10544 10542 10541 10541 10540 10539 10539 10537 10535 10533 10532 10531 10529 10527 10526 10524 10523 10523 10522 10521 10520 10520 10520 10519 10519 10518 10517 10517 10517 10516 10515 10515 10515 10515 10515 10514 10514 10513 10513 10513 10513 10514 10515 10516 10515 10515 10515
10554 10553 10552 10551 10549 10548 10547 10547 10547 10548 10546 10544 10543 10543 10544 10545 10547 10548 10547 10545 10543 10542 10542 10542 10541 10542 10541 10539 10538 10536 10534 10533 10532 10531 10531 10529 10527 10526 10525 10523 10521 10520 10518 10516 10514 10514 10513 10511 10511 10511 10511 10510 10510 10509 10509 10510 10509 10509 10508 10507 10506 10506 10505 10505 10504 10504 10504 10504 10504 10505 10505 10505 10504 10505
10547 10546 10545 10543 10542 10541 10540 10539 10539 10539 10539 10538 10536 10535 10535 10536 10536 10538 10540 10540 10538 10535 10534 10534 10533 10533 10533 10533 10532 10532 10530 10527 10524 10523 10523 10522 10520 10519 10518 10516 10515 10514 10513 10510 10508 10507 10507 10505 10503 10502 10502 10502 10501 10501 10501 10501 10501 10500 10499 10499 10498 10497 10497 10496 10495 10495 10494 10495 10495 10495 10495 10494 10494 10495
10539 10539 10537 10536 10535 10534 10533 10532 10531 10531 10532 10532 10530 10529 10528 10528 10527 10528 10530 10532 10533 10531 10529 10528 10526 10526 10525 10525 10524 10524 10524 10521 10518 10516 10515 10514 10513 10511 10510 10509 10508 10508 10507 10504 10501 10500 10501 10500 10497 10495 10494 10494 10494 10494 10494 10493 10492 10490 10489 10489 10488 10488 10487 10487 10486 10485 10485 10486 10486 10486 10485 10485 10485 10485
10532 10531 10530 10528 10527 10526 10526 10525 10524 10523 10523 10523 10523 10523 10522 10521 10520 10520 10520 10521 10524 10525 10524 10522 10520 10519 10519 10518 10517 10516 10516 10514 10513 10511 10509 10507 10506 10504 10503 10502 10501 10502 10501 10498 10495 10493 10493 10493 10492 10489 10487 10485 10485 10486 10486 10486 10484 10482 10480 10479 10478 10478 10477 10477 10477 10476 10476 10476 10477 10476 10475 10476 10476 10476
10525 10523 10522 10520 10519 10518 10517 10516 10515 10514 10513 10513 10514 10515 10515 10514 10513 10513 10513 10513 10514 10515 10517 10516 10514 10512 10512 10512 10511 10510 10508 10506 10505 10504 10502 10500 10498 10497 10496 10494 10493 10493 10493 10492 10490 10487 10485 10485 10484 10482 10479 10477 10477 10477 10477 10476 10475 10473 10472 10471 10469 10468 10468 10467 10466 10466 10465 10466 10466 10465 10465 10465 10466 10466
10516 10515 10513 10512 10510 10510 10509 10508 10507 10506 10504 10504 10504 10505 10505 10505 10505 10505 10506 10506 10506 10506 10507 10508 10507 10506 10505 10504 10504 10503 10501 10499 10497 10495 10494 10492 10491 10489 10488 10487 10485 10484 10484 10484 10483 10481 10479 10477 10475 10473 10471 10469 10468 10468 10467 10466 10465 10464 10463 10462 10461 10460 10458 10457 10455 10454 10454 10454 10454 10453 10453 10454 10454 10455
10507 10506 10504 10503 10503 10502 10501 10500 10499 10498 10496 10495 10494 10493 10494 10495 10496 10496 10497 10497 10497 10497 10497 10498 10498 10497 10496 10496 10495 10495 10493 10492 10490 10488 10486 10484 10483 10482 10480 10479 10478 10476 10476 10475 10475 10473 10472 10470 10467 10465 10462 10460 10458 10458 10457 10455 10454 10454 10453 10452 10452 10451 10449 10447 10445 10443 10442 10442 10442 10442 10442 10442 10442 10443
10499 10498 10497 10497 10496 10495 10494 10493 10491 10490 10488 10485 10484 10483 10483 10484 10485 10485 10485 10486 10486 10487 10487 10486 10487 10487 10486 10486 10486 10485 10484 10483 10482 10480 10478 10476 10475 10474 10472 10471 10469 10468 10468 10467 10466 10465 10464 10462 10459 10456 10454 10451 10449 10448 10446 10445 10444 10444 10443 10442 10441 10440 10439 10437 10434 10432 10431 10430 10429 10429 10430 10430 10429 10429
10491 10491 10491 10491 10490 10488 10488 10486 10484 10484 10484 10479 10476 10475 10475 10476 10475 10474 10474 10475 10476 10477 10477 10477 10477 10477 10476 10476 10475 10475 10474 10474 10473 10472 10470 10469 10468 10466 10464 10462 10460 10459 10460 10460 10457 10457 10456 10454 10452 10449 10445 10442 10440 10438 10436 10435 10434 10434 10433 10432 10431 10429 10428 10426 10424 10421 10420 10418 10417 10417 10417 10416 10416 10416
10481 10481 10482 10485 10484 10480 10479 10478 10477 10478 10478 10475 10472 10469 10468 10468 10467 10465 10465 10466 10467 10467 10468 10469 10468 10468 10468 10467 10466 10465 10465 10464 10463 10463 10462 10461 10460 10458 10456 10453 10451 10451 10452 10452 10449 10449 10448 10446 10444 10441 10437 10433 10431 10428 10426 10424 10423 10424 10424 10423 10421 10419 10417 10415 10412 10410 10408 10406 10405 10404 10403 10403 10403 10403
10472 10471 10472 10476 10476 10471 10468 10469 10469 10469 10469 10469 10467 10464 10461 10459 10458 10459 10458 10457 10457 10458 10459 10460 10461 10460 10459 10459 10458 10457 10456 10456 10455 10455 10454 10453 10451 10450 10448 10446 10444 10443 10444 10443 10441 10441 10440 10437 10435 10433 10429 10426 10422 10419 10417 10414 10413 10413 10414 10413 10411 10409 10407 10404 10401 10398 10396 10393 10392 10391 10391 10391 10391 10392
10463 10463 10462 10463 10463 10461 10459 10459 10460 10460 10460 10459 10457 10456 10454 10451 10449 10450 10450 10448 10448 10449 10450 10452 10452 10451 10451 10450 10449 10448 10448 10448 10447 10446 10445 10444 10442 10441 10440 10439 10437 10436 10435 10434 10432 10432 10431 10428 10426 10424 10422 10419 10414 10410 10407 10404 10403 10403 10403 10401 10399 10397 10394 10391 10389 10387 10385 10382 10381 10380 10380 10380 10380 10380
10454 10454 10453 10452 10451 10451 10450 10450 10450 10450 10450 10449 10447 10445 10445 10443 10441 10441 10441 10439 10438 10439 10441 10442 10442 10442 10442 10441 10440 10440 10440 10440 10439 10438 10437 10436 10435 10434 10433 10432 10430 10428 10427 10425 10423 10423 10421 10419 10417 10415 10413 10412 10408 10404 10398 10394 10392 10393 10392 10389 10386 10383 10380 10377 10376 10375 10374 10373 10371 10370 10370 10369 10369 10368
10445 10444 10443 10443 10442 10441 10441 10441 10441 10440 10440 10440 10438 10435 10433 10432 10433 10434 10432 10431 10430 10430 10432 10433 10433 10432 10432 10431 10431 10432 10432 10432 10431 10430 10429 10428 10427 10427 10426 10424 10422 10421 10420 10418 10416 10414 10413 10411 10409 10406 10403 10401 10400 10398 10393 10387 10382 10380 10380 10377 10373 10369 10366 10364 10362 10362 10362 10362 10361 10360 10359 10358 10357 10356
10436 10434 10433 10432 10432 10432 10432 10432 10432 10432 10431 10430 10429 10426 10423 10422 10424 10424 10423 10422 10421 10421 10423 10424 10424 10422 10422 10422 10423 10424 10423 10423 10422 10421 10420 10420 10419 10418 10418 10416 10414 10413 10412 10410 10408 10406 10404 10403 10400 10398 10395 10392 10390 10388 10385 10380 10375 10370 10368 10365 10361 10357 10354 10351 10349 10349 10349 10349 10348 10348 10347 10345 10345 10344
10425 10424 10423 10422 10422 10422 10422 10422 10423 10424 10422 10421 10419 10416 10414 10414 10414 10414 10413 10412 10412 10412 10412 10413 10413 10412 10413 10414 10415 10415 10414 10414 10413 10413 10412 10411 10410 10410 10409 10407 10406 10404 10403 10402 10400 10398 10397 10395 10392 10389 10387 10384 10382 10379 10375 10370 10366 10362 10357 10353 10350 10347 10344 10341 10339 10337 10336 10335 10334 10334 10334 10333 10332 10331
10414 10413 10412 10412 10412 10412 10412 10412 10414 10414 10412 10411 10409 10405 10404 10404 10405 10405 10404 10403 10402 10402 10402 10402 10402 10402 10403 10403 10403 10404 10404 10404 10404 10403 10403 10403 10402 10401 10400 10398 10397 10396 10395 10394 10392 10390 10388 10386 10383 10380 10377 10375 10373 10371 10367 10360 10355 10352 10347 10341 10339 10338 10335 10332 10330 10326 10324 10322 10321 10321 10321 10321 10320 10319
10401 10400 10400 10400 10401 10401 10402 10403 10403 10402 10401 10400 10398 10395 10393 10394 10394 10394 10394 10394 10393 10391 10391 10391 10392 10393 10393 10393 10392 10392 10392 10393 10394 10394 10394 10393 10392 10391 10390 10389 10388 10387 10386 10385 10383 10381 10378 10376 10373 10371 10368 10366 10364 10363 10359 10352 10346 10342 10337 10330 10327 10328 10327 10323 10320 10316 10313 10311 10310 10310 10310 10309 10308 10307
10387 10387 10387 10387 10389 10390 10390 10391 10391 10391 10390 10389 10387 10385 10383 10383 10382 10381 10382 10382 10382 10380 10380 10382 10383 10384 10384 10384 10383 10382 10382 10383 10384 10385 10384 10383 10382 10381 10380 10379 10379 10378 10377 10376 10374 10371 10369 10366 10364 10362 10359 10356 10355 10354 10350 10344 10338 10333 10328 10322 10318 10318 10317 10314 10310 10308 10304 10301 10300 10300 10299 10298 10297 10296
10372 10372 10373 10373 10375 10376 10377 10377 10377 10378 10378 10377 10376 10374 10373 10372 10371 10370 10369 10369 10369 10368 10369 10371 10372 10373 10374 10375 10374 10373 10373 10373 10374 10374 10373 10373 10372 10371 10369 10369 10368 10367 10367 10367 10366 10363 10360 10357 10355 10353 10351 10348 10346 10344 10340 10335 10329 10323 10318 10314 10312 10310 10307 10304 10302 10300 10297 10294 10292 10291 10291 10289 10287 10286
10356 10357 10358 10359 10360 10360 10361 10362 10364 10365 10366 10365 10364 10362 10361 10361 10360 10359 10358 10357 10357 10357 10358 10359 10360 10361 10363 10364 10364 10363 10362 10362 10361 10361 10361 10361 10361 10360 10359 10358 10357 10356 10356 10356 10356 10354 10352 10349 10345 10343 10342 10341 10339 10335 10329 10325 10320 10313 10308 10307 10306 10303 10298 10295 10292 10291 10289 10287 10285 10283 10283 10281 10279 10278
10342 10342 10342 10344 10345 10345 10346 10348 10350 10351 10352 10351 10350 10349 10349 10349 10349 10348 10347 10346 10347 10347 10348 10348 10349 10350 10352 10352 10352 10352 10352 10351 10350 10350 10350 10350 10349 10349 10348 10348 10347 10347 10346 10345 10345 10344 10342 10339 10336 10333 10332 10332 10331 10328 10321 10314 10308 10304 10300 10299 10298 10295 10291 10288 10285 10282 10280 10279 10277 10276 10275 10274 10272 10271
10330 10328 10327 10327 10329 10330 10332 10334 10336 10337 10337 10336 10336 10335 10336 10336 10336 10335 10335 10335 10337 10338 10337 10338 10339 10340 10341 10341 10342 10342 10342 10342 10341 10341 10340 10340 10339 10338 10338 10337 10338 10338 10337 10335 10334 10332 10330 10328 10325 10323 10322 10321 10321 10319 10313 10305 10297 10293 10292 10292 10290 10287 10284 10282 10279 10276 10273 10272 10269 10267 10267 10266 10265 10264
10317 10313 10311 10312 10313 10315 10318 10320 10321 10322 10322 10321 10320 10321 10322 10323 10322 10321 10321 10323 10326 10327 10327 10329 10329 10329 10330 10330 10331 10332 10333 10333 10333 10332 10331 10331 10330 10329 10329 10328 10328 10329 10328 10327 10325 10322 10319 10317 10314 10311 10309 10309 10310 10311 10306 10298 10288 10283 10283 10285 10283 10279 10277 10275 10273 10270 10268 10266 10263 10260 10259 10259 10258 10257
10306 10299 10295 10296 10297 10300 10303 10304 10305 10307 10308 10307 10307 10309 10310 10310 10309 10307 10307 10311 10314 10315 10317 10318 10318 10317 10318 10320 10321 10323 10323 10323 10323 10323 10322 10321 10320 10319 10319 10319 10319 10320 10319 10318 10316 10313 10310 10308 10305 10301 10297 10295 10298 10301 10300 10292 10282 10275 10273 10276 10277 10273 10270 10268 10266 10265 10263 10261 10257 10254 10252 10252 10251 10250
10294 10289 10285 10283 10282 10284 10287 10289 10290 10292 10293 10293 10296 10298 10297 10296 10296 10295 10296 10299 10302 10304 10305 10306 10306 10307 10309 10311 10312 10313 10313 10313 10313 10313 10312 10312 10311 10310 10310 10310 10310 10310 10310 10309 10307 10304 10301 10299 10296 10293 10288 10284 10285 10289 10292 10288 10279 10270 10266 10267 10269 10267 10264 10261 10260 10259 10258 10255 10252 10249 10246 10246 10245 10243
10278 10278 10276 10274 10272 10272 10273 10274 10275 10277 10279 10280 10283 10285 10284 10282 10282 10284 10285 10288 10290 10292 10293 10293 10295 10298 10300 10302 10302 10303 10303 10303 10304 10303 10303 10303 10302 10302 10301 10301 10302 10302 10301 10300 10298 10295 10293 10290 10288 10285 10281 10277 10275 10278 10281 10281 10276 10268 10261 10261 10262 10261 10258 10256 10254 10254 10253 10251 10248 10244 10241 10240 10240 10238
10264 10265 10266 10264 10263 10262 10262 10262 10263 10266 10267 10267 10268 10271 10271 10270 10270 10272 10275 10277 10280 10281 10282 10282 10285 10290 10292 10292 10292 10292 10292 10293 10293 10293 10294 10293 10293 10292 10292 10292 10292 10293 10292 10290 10288 10285 10283 10282 10279 10277 10274 10271 10268 10268 10270 10271 10270 10265 10260 10257 10256 10254 10252 10250 10248 10248 10247 10246 10244 10240 10237 10236 10236 10234
10252 10253 10253 10252 10252 10252 10252 10252 10253 10255 10256 10256 10256 10258 10259 10258 10258 10260 10264 10266 10269 10271 10272 10273 10277 10281 10282 10282 10282 10282 10282 10283 10283 10283 10283 10283 10282 10282 10282 10282 10283 10283 10282 10280 10278 10276 10275 10273 10271 10269 10267 10264 10262 10261 10261 10261 10262 10260 10258 10255 10252 10249 10247 10245 10243 10243 10242 10241 10239 10237 10234 10232 10232 10231
10241 10241 10241 10241 10241 10241 10241 10242 10243 10244 10245 10246 10246 10246 10247 10248 10250 10252 10255 10256 10258 10260 10262 10265 10268 10271 10272 10272 10273 10273 10273 10273 10273 10273 10273 10272 10272 10272 10271 10272 10273 10273 10272 10271 10269 10268 10267 10265 10264 10262 10259 10257 10256 10255 10254 10254 10253 10253 10252 10251 10249 10246 10243 10241 10239 10238 10238 10236 10235 10234 10232 10230 10228 10227
10230 10230 10230 10231 10230 10230 10231 10232 10233 10234 10235 10235 10234 10234 10235 10238 10241 10245 10247 10248 10249 10252 10254 10257 10259 10260 10261 10262 10263 10263 10264 10264 10263 10263 10263 10262 10262 10261 10262 10263 10265 10265 10264 10262 10261 10260 10259 10258 10256 10255 10253 10251 10250 10249 10248 10247 10247 10246 10246 10245 10243 10241 10239 10237 10236 10234 10233 10232 10231 10230 10228 10227 10226 10224
10219 10219 10220 10220 10220 10220 10222 10223 10224 10225 10225 10224 10223 10223 10224 10227 10231 10236 10239 10241 10244 10246 10248 10249 10250 10251 10252 10253 10253 10253 10253 10253 10253 10253 10253 10252 10252 10253 10254 10256 10257 10256 10255 10255 10253 10253 10252 10251 10250 10249 10247 10245 10244 10243 10242 10242 10241 10241 10241 10240 10238 10236 10234 10233 10232 10231 10230 10228 10227 10226 10225 10224 10223 10222
10209 10209 10210 10211 10212 10212 10213 10214 10215 10215 10215 10214 10214 10214 10216 10219 10223 10228 10231 10234 10237 10239 10240 10241 10242 10243 10244 10244 10244 10244 10244 10244 10244 10244 10244 10243 10244 10246 10248 10249 10249 10248 10248 10247 10247 10246 10245 10244 10243 10242 10241 10240 10239 10238 10237 10236 10236 10236 10236 10235 10233 10232 10231 10229 10228 10228 10227 10225 10224 10224 10223 10222 10220 10219
10198 10200 10201 10202 10202 10203 10203 10204 10205 10205 10205 10207 10208 10208 10209 10212 10216 10220 10223 10226 10229 10231 10233 10234 10235 10235 10235 10235 10235 10235 10236 10236 10236 10236 10236 10237 10239 10240 10241 10242 10241 10241 10241 10241 10240 10240 10239 10238 10237 10236 10235 10234 10234 10233 10233 10232 10231 10231 10231 10230 10228 10228 10227 10226 10225 10224 10223 10222 10221 10221 10220 10219 10218 10216